Regional Weather Roundup
Issued by NWS Charleston, SC

Current Version | Previous Version | Text Only | Print | Product List | Glossary Off
Versions: 1 2 3 4 5 6 7 8 9 10 11 12 13 14 15 16 17 18 19 20 21 22 23 24 25 26 27 28 29 30 31 32 33 34 35 36 37 38 39 40 41 42 43 44 45 46 47 48 49 50

000
ASUS42 KCHS 220825
RWRCHS

REGIONAL WEATHER ROUNDUP
NATIONAL WEATHER SERVICE CHARLESTON SC
400 AM EDT MON SEP 22 2014

NOTE: "FAIR" INDICATES FEW OR NO CLOUDS BELOW 12,000 FEET WITH NO
SIGNIFICANT WEATHER AND/OR OBSTRUCTIONS TO VISIBILITY.

NOT ALL STATIONS ARE QUALITY CONTROLLED BY THE NATIONAL
WEATHER SERVICE. USE DATA WITH CAUTION...ESPECIALLY
DEWPOINT OBSERVATIONS.

SCZ027-030-031-034>040-042>050-220900-
...SOUTH CAROLINA...

CITY           SKY/WX    TMP DP  RH WIND       PRES   REMARKS
N CHARLESTON   CLEAR     74  66  76 SW9       29.94F
WATERFRONT PRK NOT AVBL
FORT JOHNSON   NOT AVBL
MOUNT PLEASANT FAIR      75  66  73 SW7       29.94S
JOHNS ISLAND   SUNNY     73  70  88 CALM      29.95S
PINOPOLIS        N/A     75  64  69 SW10      29.87S
MONCKS CORNER    N/A     72  66  83 SW7       29.94S
SUMMERVILLE    FAIR      68  66  94 S3        29.95S
BEAUFORT MCAS  CLEAR     71  62  73 E7        29.96S
BEAUFORT ARPT  FAIR      72  64  78 SW6       29.96S
HILTON HEAD IS CLEAR     72  64  78 SW7       29.97S
GEORGETOWN     NOT AVBL
WALTERBORO     SUNNY     68  68 100 CALM      29.96S
ORANGEBURG     PTCLDY    70  62  76 S6        29.93F
BARNWELL       FAIR      72  63  73 SW6       29.95S
AIKEN          FAIR      70  64  83 S6        29.98S
MANNING        PTSUNNY   73  64  73 SW6       29.93S
KINGSTREE      NOT AVBL
COLUMBIA       PTCLDY    75  62  64 W7        29.91S
SUMTER         MOCLDY    74  64  71 SW8       29.90S
FLORENCE       CLOUDY    72  64  76 SW6       29.91R
MYRTLE BEACH   MOCLDY    73  63  68 SW12      29.91S
N MYRTLE BEACH CLOUDY    74  64  71 W7        29.91S

$$

GAZ063-065-086>088-099>101-113>116-118-119-134-136>141-150-220900-
...GEORGIA...

CITY           SKY/WX    TMP DP  RH WIND       PRES   REMARKS
SAVANNAH ARPT  CLEAR     69  62  78 CALM      29.97F
HUNTER AAF     CLEAR     69  63  81 SW5       29.96S
FORT STEWART   CLEAR     66  61  84 SW3       29.97S
STATESBORO     NOT AVBL
SYLVANIA       SUNNY     73  67  81 CALM      29.97S
CLAXTON        FAIR      64  64 100 CALM      29.97S
THOMSON        CLOUDY    75  69  81 CALM      30.00R
AUGUSTA-BUSH   CLOUDY    73  62  68 NW5       29.94R
AUGUSTA-DANIEL CLOUDY    75  62  64 SW7       29.96R
SWAINSBORO     CLOUDY    72  64  78 W3        29.98S
VIDALIA        CLEAR     70  61  73 W3        29.98S
ALMA           CLEAR     61  59  93 CALM      29.98F
WAYCROSS       NOT AVBL
JESUP          FAIR      64  63  94 CALM      29.98S
BRUNSWICK      CLEAR     66  61  82 SW3       29.98F
SAINT SIMONS   CLEAR     70  63  78 W6        29.98F

$$

SCZ027-028-034-036>038-045-046-048>050-GAZ119-141-220900-
...LAKE AND SUPPLEMENTAL COASTAL OBSERVATIONS...

STATION/POSITION TIME  TEMP    WIND        PRES    WAVE   SWELL
                       AIR SEA DIR/SP/G            HT/PER HT/PER/DIR
                 (UTC) (F)     (DEG/KT/KT) (MB)    (FT/S) (FT/S/D)
UPR LAKE MARION  NOT AVBL
WINYAH BAY       0800   75     250/  7     1013.0S
LAKE MURRAY      0700   77     250/  8/ 10 1012.2F
ACE BASIN NERRS  0800   70        CALM     1014.0S
FORT PULASKI     0800   72     200/  6/  8 1015.0S
SAPELO ISLAND    0800   71     210/  8     1015.0S

$$

ANZ835-935-AMZ111-154-330-350-352-354-374-450-454-472-220900-
...C-MAN AND BUOY OBSERVATIONS...

STATION/POSITION TIME  TEMP    WIND        PRES    WAVE   SWELL
                       AIR SEA DIR/SP/G            HT/PER HT/PER/DIR
                 (UTC) (F)     (DEG/KT/KT) (MB)    (FT/S) (FT/S/D)
FOLLY BEACH CMAN 0800   74     240/  6/  7 1014.4F
BUOY 41004       0800   82 81  240/ 17/ 21 1013.3F   4/ 5   2/ 9
BUOY 41008       0800   81 82  240/ 14/ 17 1014.7F   3/ 4   2/110/10
5E ST. MARYS GA  0800      83                N/A     3/ 9
FRYING PAN BUOY  NOT AVBL
BUOY 41025       0800   81     240/ 21/ 27 1011.0R   7/ 9   3/130/ 9
CAPE LOOKOUT NC  0800   78     240/ 11/ 14 1011.7R
BUOY 41002       0654   80 81  270/ 12/ 14 1015.3    6/ 6   5/260/ 6
BUOY 41010       0800   81 84  230/  6/  8 1015.5F   5/11   5/ 20/11
BUOY 41012       NOT AVBL
ST AUGUSTINE FL  0800   73     220/  7/  8 1015.9F
CAPERS NEARSHORE 0700   79     250/ 16/ 17   N/A
FRIPP NEARSHORE  NOT AVBL


$$



USA.gov is the U.S. government's official web portal to all federal, state and local government web resources and services.